This demonstration page uses our WeatherBlox Daily Observations layout. Learn more.

Left ArrowRight Arrow

39.92423, -83.80882

Hourly Observations for April 12, 2021

Temp ( °F °C ) Dew Point ( °F °C ) Humidity (%) Winds ( mph kmh ) Pressure ( in mb ) Visibility ( mi km ) Precip ( " mm )
12:56 am 00:56 Cloudy 48 8.9 48 8.9 100 100 WSW 10 17 29.59 1002 10 16.0934 0 0
1:56 am 01:56 Cloudy 48 8.9 48 8.9 100 100 WSW 14 22 29.6 1002 10 16.0934 0 0
2:35 am 02:35 Cloudy 48 9 48 9 100 100 W 10 17 29.61 1003 10 16.0934 0 0
2:56 am 02:56 Cloudy 48 8.9 48 8.9 100 100 WSW 10 17 29.6 1002 10 16.0934 0 0
3:56 am 03:56 Cloudy 48 8.9 48 8.9 100 100 W 10 17 29.61 1003 10 16.0934 0 0
4:56 am 04:56 Cloudy 48 8.9 48 8.9 100 100 W 12 19 29.62 1003 10 16.0934 0 0
5:56 am 05:56 Cloudy 48 8.9 48 8.9 100 100 W 12 19 29.65 1004 10 16.0934 0 0
6:56 am 06:56 Mostly Cloudy 47 8.3 47 8.3 100 100 W 8 13 29.67 1005 10 16.0934 0 0
7:03 am 07:03 Partly Cloudy 46 8 46 8 100 100 WSW 8 13 29.67 1005 10 16.0934 0 0
7:53 am 07:53 Mostly Cloudy 48 9 48 9 100 100 WSW 8 13 29.69 1005 10 16.0934 0 0
7:56 am 07:56 Mostly Cloudy 48 8.9 48 8.9 100 100 W 9 15 29.68 1005 10 16.0934 0 0
8:32 am 08:32 Cloudy 48 9 48 9 100 100 WSW 10 17 29.72 1006 10 16.0934 0 0
8:56 am 08:56 Cloudy 49 9.4 49 9.4 100 100 WSW 10 17 29.71 1006 10 16.0934 0 0
9:56 am 09:56 Cloudy 51 10.6 50 10 96 96 W 10 17 29.74 1007 10 16.0934 0 0
10:56 am 10:56 Cloudy 52 11.1 50 10 93 93 W 14 22 29.75 1008 10 16.0934 0 0
11:14 am 11:14 Cloudy 54 12 50 10 88 88 W 9 15 29.75 1008 10 16.0934 0 0
11:34 am 11:34 Cloudy 54 12 50 10 88 88 W 9 15 29.75 1008 10 16.0934 0 0
11:42 am 11:42 Cloudy 54 12 50 10 88 88 WNW 12 19 29.75 1008 10 16.0934 0 0
11:56 am 11:56 Cloudy with Light Rain 52 11.1 51 10.6 97 97 W 13 20 29.77 1008 5 8.0467 0 0
12:19 pm 12:19 Cloudy with Light Rain 52 11 52 11 100 100 W 9 15 29.78 1008 6 9.65604 0 0
12:27 pm 12:27 Cloudy with Light Rain 52 11 52 11 100 100 W 9 15 29.78 1008 10 16.0934 0 0
12:51 pm 12:51 Cloudy with Light Rain 52 11 52 11 100 100 W 10 17 29.79 1009 4 6.43736 0 0
12:56 pm 12:56 Cloudy with Mist and Fog 52 11.1 52 11.1 100 100 W 13 20 29.79 1009 6 9.65604 0 0
1:30 pm 13:30 Cloudy with Light Rain 52 11 52 11 100 100 WNW 8 13 29.8 1009 5 8.0467 0 0
1:45 pm 13:45 Cloudy with Light Rain 52 11 52 11 100 100 WNW 8 13 29.81 1009 2.5 4.02335 0 0
1:56 pm 13:56 Cloudy with Light Rain 52 11.1 52 11.1 100 100 W 9 15 29.81 1009 2.5 4.02335 0 0
2:09 pm 14:09 Cloudy with Light Rain 52 11 52 11 100 100 W 6 9 29.81 1009 3 4.82802 0 0
2:23 pm 14:23 Cloudy with Light Rain 52 11 52 11 100 100 W 8 13 29.81 1009 2.5 4.02335 0 0
2:37 pm 14:37 Cloudy with Light Rain 54 12 54 12 100 100 W 10 17 29.81 1010 4 6.43736 0 0
2:56 pm 14:56 Cloudy 53 11.7 53 11.7 100 100 W 12 19 29.82 1010 8 12.87472 0 0
3:51 pm 15:51 Cloudy 55 13 55 13 100 100 WNW 14 22 29.82 1010 10 16.0934 0 0
3:56 pm 15:56 Cloudy 55 12.8 55 12.8 100 100 WNW 15 24 29.83 1010 10 16.0934 0 0
4:10 pm 16:10 Cloudy 55 13 54 12 94 94 WNW 12 19 29.83 1010 10 16.0934 0 0
4:56 pm 16:56 Cloudy 57 13.9 55 12.8 93 93 WNW 8 13 29.85 1011 10 16.0934 0 0
5:56 pm 17:56 Mostly Cloudy 58 14.4 53 11.7 84 84 NW 5 7 29.87 1011 10 16.0934 0 0
6:56 pm 18:56 Mostly Cloudy 57 13.9 53 11.7 87 87 Calm 29.88 1012 10 16.0934 0 0
7:56 pm 19:56 Sunny 56 13.3 54 12.2 93 93 SW 3 6 29.9 1013 10 16.0934 0 0
8:56 pm 20:56 Clear 53 11.7 49 9.4 86 86 W 7 11 29.93 1014 10 16.0934 0 0
9:56 pm 21:56 Clear 52 11.1 47 8.3 83 83 W 6 9 29.96 1015 10 16.0934 0 0
10:56 pm 22:56 Clear 50 10 45 7.2 83 83 W 7 11 29.98 1015 10 16.0934 0 0
11:56 pm 23:56 Clear 50 10 45 7.2 83 83 W 6 9 29.99 1016 10 16.0934 0 0

Powered by AerisWeather